This is the latest recevied weather packets stored in our database for station/object NEWPRT. If no packets are shown the sender has not sent any weather packets the latest 10 day(s).
| Time | Temp. | Humidity | Pressure | Rain* | Wind** | Luminosity | Snow |
|---|---|---|---|---|---|---|---|
| 1778167016 | - | 61% | 1021.6 hPa | 0 mm | - | - | - |
| 1778166693 | - | 59% | 1021.6 hPa | 0 mm | - | - | - |
| 1778166370 | - | 60% | 1021.6 hPa | 0 mm | - | - | - |
| 1778166047 | - | 62% | 1021.5 hPa | 0 mm | - | - | - |
| 1778165724 | - | 61% | 1021.4 hPa | 0 mm | - | - | - |
| 1778165401 | - | 63% | 1021.6 hPa | 0 mm | - | - | - |
| 1778165078 | - | 62% | 1021.6 hPa | 0 mm | - | - | - |
| 1778164755 | - | 62% | 1021.5 hPa | 0 mm | - | - | - |
| 1778164433 | - | 62% | 1021.5 hPa | 0 mm | - | - | - |
| 1778164109 | - | 62% | 1021.5 hPa | 0 mm | - | - | - |
| 1778163786 | - | 61% | 1021.2 hPa | 0 mm | - | - | - |
| 1778163463 | - | 61% | 1021.3 hPa | 0 mm | - | - | - |
| 1778163139 | - | 64% | 1021.3 hPa | 0 mm | - | - | - |
| 1778162818 | - | 62% | 1021.3 hPa | 0 mm | - | - | - |
| 1778162497 | - | 64% | 1021.5 hPa | 0 mm | - | - | - |
| 1778162171 | - | 63% | 1021.2 hPa | 0 mm | - | - | - |
| 1778161848 | - | 65% | 1021.2 hPa | 0 mm | - | - | - |
| 1778161525 | - | 64% | 1021.1 hPa | 0 mm | - | - | - |
| 1778161202 | - | 63% | 1021.1 hPa | 0 mm | - | - | - |
| 1778160878 | - | 64% | 1021 hPa | 0 mm | - | - | - |
| 1778160556 | - | 64% | 1021 hPa | 0 mm | - | - | - |
| 1778160232 | - | 64% | 1021.1 hPa | 0 mm | - | - | - |
| 1778159909 | - | 65% | 1021.1 hPa | 0 mm | - | - | - |
| 1778159586 | - | 66% | 1021.1 hPa | 0 mm | - | - | - |
| 1778159263 | - | 65% | 1020.9 hPa | 0 mm | - | - | - |
* Rain latest hour (hover to see other rain measurements)
** Current wind speed in m/s (hover to see current wind gust speed)